User: anonymous   Login
Location: Dillon
(41.1766°N, 107.0923°W)
Time: 13:58:19
(UTC+00:00)
Language:

DELTA 2 DEB (DPAF) - Orbit

View from above orbital plane
View from above orbital plane
View from above satellite
View from above satellite

Ground track
Ground track

The orbit data is extracted from the following two-line orbital elements,

1 29110U 06016D   22341.83317122  .00005857  00000-0  80554-3 0  9995
2 29110  98.4243 152.6421 0002629 224.8962 242.7149 14.78705760891099
Epoch (UTC): 07 December 2022 19:59:45
Eccentricity: 0.0002629
inclination: 98.4243°
perigee height: 631 km
apogee height: 635 km
right ascension of ascending node: 152.6421°
argument of perigee: 224.8962°
revolutions per day: 14.78705760
mean anomaly at epoch: 242.7149°
orbit number at epoch: 89109

The dashed part of the orbit path shows where the satellite is in the earth's shadow,  

DLR